[[{"header":{"parameterUnit":"m.s-1","parameterCategory":1,"la1":30.2991,"la2":30.254,"lo1":-89.0895,"lo2":-89.0444,"dy":0.0017,"dx":0.0017,"nx":28,"ny":28,"refTime":"2025-09-18T03:00:00:Z","depth":0,"parameterNumber":2,"parameterNumberName":"U-component_of_WINDS"},"data":[0,0,0,0,0,0,0,0,0,0,0,0,0,0,0,0,0,0,0,0,0,0,0,0,0,0,0,0,0,0,0,0,0,0,0,0,0,0,0,0,0,0,0,0,0,0,0,0,0,0,0,0,0,0,0,0,0,0,1.8916,1.8917,0,1.9026,1.9028,1.9029,1.9057,1.9056,1.9055,1.9055,1.9167,1.917,1.9174,0,0,0,0,0,0,0,0,0,0,0,0,0,1.8727,1.873,1.8916,1.8917,1.8919,1.9026,1.9028,1.9029,1.9057,1.9056,1.9055,1.9054,1.9165,1.917,1.9174,0,0,0,0,0,0,0,0,0,0,0,0,0,1.882,1.8732,1.8916,1.8946,1.8949,1.9026,1.9028,1.903,1.9057,1.9056,1.9055,1.9054,1.9164,1.9169,1.9175,1.9229,0,0,1.9191,1.9194,0,0,0,0,0,0,0,0,1.8815,1.8827,1.894,1.8944,1.8948,1.9027,1.9002,1.9097,1.9057,1.9016,1.9055,1.9053,1.9121,1.913,1.9153,1.9235,1.9239,1.9192,1.9195,1.9197,1.9199,0,0,0,0,0,0,0,1.8809,1.8823,1.896,1.8941,1.8946,1.8953,1.8965,1.902,1.9073,1.902,1.9022,1.9035,1.9123,1.9147,1.9156,1.9241,1.9192,1.9196,1.92,1.9202,1.9371,1.9372,0,0,0,0,0,0,1.8797,1.8817,1.8956,1.8963,1.8878,1.8957,1.897,1.9002,1.9072,1.9082,1.9035,1.9035,1.9139,1.9149,1.916,1.9227,1.9197,1.9202,1.9206,1.937,1.9371,1.9373,0,0,0,0,0,0,1.8793,1.8809,1.8952,1.8891,1.8909,1.8961,1.8997,1.9005,1.903,1.9084,1.9094,1.9051,1.9138,1.9152,1.9211,1.9231,1.9205,1.921,1.9369,1.937,1.9372,1.9362,0,0,0,0,0,0,1.8788,1.8808,1.883,1.8891,1.8913,1.9002,1.8998,1.9008,1.9039,1.904,1.9101,1.911,1.9138,1.9203,1.9217,1.9238,1.9214,1.9367,1.9369,1.9372,1.9361,1.9363,1.9365,0,0,0,0,0,1.8781,1.8822,1.8831,1.8847,1.8941,1.9003,1.9015,1.9047,1.9041,1.9062,1.9097,1.9109,1.9227,1.9209,1.9225,1.9248,1.9366,1.9369,1.9371,1.936,1.9363,1.9365,0,0,0,0,0,0,1.8762,1.8831,1.8841,1.8904,1.8947,1.9008,1.9036,1.905,1.9096,1.9095,1.9132,1.9145,1.9202,1.9231,1.921,1.9303,1.9296,1.9302,1.9282,1.9285,1.9288,1.9279,1.9219,0,0,0,0,0,1.8765,1.881,1.8868,1.8918,1.894,1.8984,1.9013,1.9033,1.908,1.9098,1.9137,1.9182,1.9229,1.9259,1.9305,1.9365,1.9378,1.9389,1.9391,1.9393,1.9397,1.9429,1.9434,1.9382,1.9382,1.9382,0,0,1.8772,1.8815,1.8842,1.8915,1.8952,1.8997,1.8999,1.9048,1.9081,1.9105,1.9163,1.9194,1.9246,1.9305,1.9333,1.9331,1.9415,1.9396,1.9397,1.9401,1.9433,1.9438,1.9442,1.9384,1.9383,1.9383,0,0,1.8807,1.8845,1.889,1.8926,1.8981,1.901,1.9021,1.908,1.91,1.916,1.9178,1.9218,1.9299,1.9335,1.9363,1.9411,1.9422,1.9425,1.9437,1.9468,1.9472,1.9476,1.9491,1.9496,1.943,1.943,1.943,0,1.8808,1.8878,1.8912,1.8958,1.899,1.9014,1.9059,1.9092,1.9159,1.918,1.9177,1.9277,1.9314,1.9381,1.9393,1.9416,1.9428,1.9418,1.9469,1.9473,1.9477,1.9492,1.9498,1.943,1.943,1.943,1.943,0,1.8876,1.8924,1.8953,1.9017,1.9052,1.9098,1.9137,1.9168,1.9186,1.9215,1.9274,1.9319,1.9374,1.9392,1.9409,1.9461,1.9458,1.9461,1.9455,1.9481,1.9496,1.9502,1.9429,1.9429,1.9429,1.9429,0,0,1.8902,1.8983,1.8993,1.9022,1.9084,1.9121,1.9167,1.9222,1.9247,1.9292,1.9331,1.9398,1.9401,1.9434,1.9455,1.9483,1.9515,1.9483,1.9484,1.9486,1.9573,1.9569,1.9575,1.9524,1.9525,1.9526,1.9568,0,1.8943,1.9027,1.9058,1.9127,1.917,1.9194,1.9234,1.9276,1.9304,1.9345,1.9376,1.9422,1.9424,1.9443,1.9472,1.9505,1.9533,1.9503,1.9559,1.9561,1.9544,1.9583,1.958,1.9617,1.9574,1.9575,1.9576,0,1.9003,1.9049,1.9121,1.9176,1.9196,1.9231,1.9283,1.9322,1.9369,1.9388,1.9424,1.9443,1.9492,1.9483,1.9549,1.9528,1.9553,1.9573,1.9575,1.958,1.9569,1.9588,1.963,1.9635,1.9586,1.9585,1.9584,0,1.9012,1.9092,1.9145,1.9169,1.9236,1.926,1.9288,1.9335,1.9365,1.941,1.9429,1.9479,1.9506,1.9544,1.9576,1.9567,1.9639,1.9633,1.9654,1.9654,1.9668,1.9666,1.9713,1.9686,1.9686,1.9686,1.9686,0,1.9054,1.9097,1.915,1.9183,1.9231,1.9267,1.9313,1.9344,1.9384,1.9423,1.9446,1.9481,1.9523,1.9563,1.9589,1.9638,1.9651,1.9666,1.9672,1.9664,1.9661,1.9679,1.9677,1.9687,1.9687,1.9687,1.9686,0,1.9072,1.911,1.9169,1.9227,1.9242,1.9275,1.9325,1.9357,1.9386,1.9434,1.9447,1.9493,1.9541,1.9578,1.9641,1.9658,1.9711,1.9718,1.9694,1.9697,1.9716,1.9713,1.9775,1.9784,1.9752,1.9752,1.9753,0,1.9096,1.9129,1.9191,1.9218,1.9247,1.9291,1.9321,1.9357,1.9388,1.9444,1.9469,1.9519,1.9561,1.9637,1.9676,1.9724,1.9731,1.9749,1.9738,1.9728,1.9729,1.9726,1.9729,1.975,1.975,1.9751,1.9751,0,1.9133,1.915,1.9193,1.9243,1.9279,1.932,1.9362,1.9382,1.9426,1.9459,1.9509,1.9541,1.9605,1.9654,1.9706,1.9734,1.9749,1.9754,1.9761,1.9752,1.9736,1.9743,1.9697,1.9752,1.9752,1.9752,1.9752,1.9752,1.9154,1.9184,1.9232,1.9279,1.9314,1.9352,1.9384,1.9418,1.946,1.9515,1.9534,1.9585,1.963,1.9701,1.973,1.977,1.977,1.9781,1.9784,1.9785,1.9784,1.9731,1.978,1.978,1.978,1.978,1.978,0,1.9191,1.9223,1.9266,1.9323,1.936,1.9372,1.9418,1.9447,1.9492,1.9534,1.9574,1.9631,1.9678,1.972,1.9769,1.9793,1.9801,1.9805,1.9803,1.9809,1.9782,1.977,1.9797,1.9797,1.9797,1.9797,1.9797,1.9797,1.9214,1.9266,1.9288,1.9357,1.9388,1.9439,1.9464,1.9498,1.9531,1.9594,1.9633,1.966,1.9702,1.9754,1.9798,1.9809,1.9825,1.9827,1.9839,1.9813,1.9811,1.9809,1.9797,1.983,1.983,1.9863,1.9863,1.9863]},{"header":{"parameterUnit":"m.s-1","parameterCategory":1,"la1":30.2991,"la2":30.254,"lo1":-89.0895,"lo2":-89.0444,"dy":0.0017,"dx":0.0017,"nx":28,"ny":28,"refTime":"2025-09-18T03:00:00:Z","depth":0,"parameterNumber":3,"parameterNumberName":"V-component_of_WINDS"},"data":[0,0,0,0,0,0,0,0,0,0,0,0,0,0,0,0,0,0,0,0,0,0,0,0,0,0,0,0,0,0,0,0,0,0,0,0,0,0,0,0,0,0,0,0,0,0,0,0,0,0,0,0,0,0,0,0,0,0,3.7925,3.7925,0,3.7866,3.7866,3.7865,3.7786,3.7784,3.7783,3.7782,3.772,3.772,3.7719,0,0,0,0,0,0,0,0,0,0,0,0,0,3.7968,3.7967,3.7925,3.7924,3.7924,3.7867,3.7866,3.7865,3.7786,3.7784,3.7783,3.7781,3.772,3.772,3.7719,0,0,0,0,0,0,0,0,0,0,0,0,0,3.7933,3.7967,3.7925,3.7877,3.7873,3.7867,3.7866,3.7865,3.7786,3.7784,3.7782,3.778,3.772,3.772,3.7719,3.7755,0,0,3.7717,3.7717,0,0,0,0,0,0,0,0,3.7935,3.7932,3.7885,3.7881,3.7875,3.7831,3.7858,3.7828,3.7787,3.7819,3.7782,3.7779,3.7759,3.7755,3.7748,3.7752,3.7749,3.7717,3.7717,3.7717,3.7716,0,0,0,0,0,0,0,3.7938,3.7934,3.7902,3.7885,3.7879,3.7858,3.7851,3.7852,3.7801,3.7816,3.781,3.7804,3.7755,3.7749,3.7746,3.7749,3.7717,3.7717,3.7716,3.7716,3.7778,3.778,0,0,0,0,0,0,3.7947,3.7936,3.7904,3.79,3.7901,3.7859,3.7851,3.7847,3.78,3.7791,3.7806,3.7801,3.7751,3.7747,3.7743,3.7782,3.7717,3.7716,3.7716,3.7776,3.7779,3.7781,0,0,0,0,0,0,3.7949,3.7945,3.7906,3.7917,3.791,3.7861,3.7857,3.7847,3.7841,3.7793,3.7783,3.7809,3.7749,3.7744,3.7753,3.7779,3.7716,3.7715,3.7774,3.7777,3.778,3.7859,0,0,0,0,0,0,3.795,3.7946,3.796,3.7917,3.791,3.7917,3.7859,3.7848,3.784,3.7832,3.7793,3.7784,3.7747,3.7754,3.7752,3.7777,3.7715,3.7771,3.7775,3.7779,3.7854,3.7865,3.7874,0,0,0,0,0,3.7952,3.7984,3.7961,3.7957,3.7926,3.7919,3.7914,3.7871,3.7842,3.7855,3.7825,3.7786,3.7776,3.7756,3.7753,3.7777,3.777,3.7774,3.7779,3.785,3.7863,3.7873,0,0,0,0,0,0,3.803,3.7978,3.7951,3.7971,3.795,3.7905,3.792,3.7886,3.7873,3.7866,3.7813,3.7805,3.782,3.7799,3.7777,3.7809,3.7767,3.7771,3.7822,3.7834,3.7844,3.7848,3.7714,0,0,0,0,0,3.8049,3.8049,3.8003,3.8024,3.8015,3.797,3.7965,3.7934,3.791,3.7901,3.7871,3.7848,3.784,3.7836,3.7826,3.7851,3.7841,3.7867,3.7876,3.7885,3.7889,3.79,3.791,3.7796,3.7796,3.7796,0,0,3.809,3.8061,3.8063,3.8039,3.8019,3.8019,3.7963,3.7965,3.7964,3.7901,3.7907,3.7884,3.7856,3.7873,3.7879,3.7856,3.7918,3.789,3.7897,3.7897,3.7906,3.7916,3.7926,3.7799,3.7799,3.7798,0,0,3.8162,3.8141,3.8156,3.8138,3.8109,3.8078,3.8083,3.8043,3.8026,3.8031,3.7983,3.7982,3.7969,3.7951,3.794,3.8006,3.797,3.8005,3.8055,3.8067,3.8076,3.8083,3.8107,3.8116,3.8009,3.8009,3.8009,0,3.8216,3.8214,3.8169,3.8174,3.8164,3.8108,3.8123,3.8107,3.8076,3.807,3.8046,3.8029,3.8006,3.8017,3.8034,3.8027,3.8029,3.8008,3.8078,3.8086,3.8092,3.8113,3.8122,3.8013,3.8013,3.8012,3.8012,0,3.8281,3.828,3.8296,3.8268,3.8261,3.8271,3.8227,3.8225,3.8194,3.8166,3.8172,3.8143,3.8126,3.8126,3.8097,3.8134,3.812,3.8088,3.8044,3.8108,3.8127,3.8135,3.802,3.8018,3.8017,3.8016,0,0,3.84,3.8348,3.8354,3.8341,3.8305,3.8303,3.8311,3.8295,3.8294,3.8274,3.8279,3.827,3.8239,3.8227,3.8195,3.8205,3.8259,3.8171,3.817,3.8188,3.8297,3.8322,3.8332,3.8235,3.8236,3.8238,3.8299,0,3.8465,3.8476,3.8435,3.8456,3.8455,3.8401,3.8407,3.8386,3.836,3.8355,3.8326,3.8321,3.8281,3.8274,3.8281,3.8251,3.828,3.8246,3.8238,3.8238,3.8246,3.8342,3.8367,3.8427,3.8307,3.8308,3.8309,0,3.8543,3.8528,3.8549,3.8512,3.851,3.8517,3.8499,3.8495,3.8469,3.8449,3.8436,3.8399,3.8403,3.8363,3.8367,3.8345,3.8339,3.8324,3.8325,3.8322,3.8277,3.8341,3.8445,3.8454,3.832,3.8319,3.8319,0,3.8627,3.8613,3.8623,3.8613,3.8571,3.8577,3.8559,3.8531,3.8524,3.8508,3.8503,3.8488,3.848,3.8468,3.8428,3.8402,3.8437,3.8393,3.842,3.8421,3.8429,3.8429,3.8534,3.8427,3.8427,3.8427,3.8427,0,3.8704,3.8718,3.866,3.8667,3.8681,3.8635,3.865,3.8627,3.8604,3.8604,3.8557,3.8558,3.8505,3.85,3.8469,3.8477,3.8474,3.8457,3.8449,3.8461,3.8463,3.8456,3.8451,3.8429,3.8429,3.8428,3.8428,0,3.88,3.8762,3.8769,3.8729,3.8719,3.8732,3.8696,3.87,3.8672,3.8673,3.8671,3.8626,3.8618,3.8577,3.8559,3.8538,3.8557,3.854,3.8566,3.856,3.8589,3.8587,3.8692,3.8704,3.8591,3.8592,3.8593,0,3.8851,3.8861,3.8822,3.8819,3.8804,3.88,3.8793,3.8747,3.8741,3.8713,3.872,3.8709,3.8697,3.8687,3.8652,3.8638,3.862,3.8658,3.8618,3.863,3.862,3.862,3.862,3.8667,3.8668,3.8669,3.867,0,3.8945,3.8926,3.8918,3.8903,3.8896,3.8882,3.8865,3.8866,3.8815,3.8811,3.8803,3.8794,3.8776,3.8765,3.8745,3.8726,3.869,3.8684,3.8689,3.8702,3.8716,3.8708,3.8589,3.8681,3.868,3.8679,3.8679,3.8678,3.902,3.9026,3.9,3.8992,3.8975,3.896,3.8962,3.8934,3.8927,3.8909,3.8883,3.8878,3.8852,3.8822,3.8806,3.8801,3.878,3.8788,3.879,3.8792,3.8799,3.8718,3.8797,3.8797,3.8796,3.8796,3.8796,0,3.9111,3.9092,3.9085,3.9063,3.9057,3.9025,3.9005,3.9001,3.8998,3.8977,3.8967,3.8957,3.8946,3.8911,3.8897,3.8899,3.8882,3.8897,3.8896,3.8892,3.8818,3.8815,3.8911,3.8911,3.8911,3.8911,3.8911,3.8911,3.9158,3.9167,3.9145,3.9145,3.9125,3.912,3.9112,3.9098,3.9081,3.9073,3.9064,3.9041,3.9014,3.8997,3.8986,3.8975,3.8972,3.8992,3.8977,3.8908,3.8897,3.8887,3.8883,3.8992,3.8992,3.905,3.9051,3.9051]}]]